默认 日期 大小 文件数 浏览量 最新下载 xml
trance-磁力链接相关资源由用户搜索指令自动获取,结果来源于网络,本站不存储任何资料,亦不承担任何责任,请于24小时内删除,搜索到30038个磁力,显示前4000条数据,用时6ms。
    {"cover.jpg": 66337, "Descarga Premium.txt": 601, "02-katty_heath-rise_(original_mix)-4b4d6789.mp3": 9395503, "09-costa-illuminate_(original_mix)-55b5f408.mp3": 9334899, "08-lauge-my_innocence_(costa_remix)-e53ccf6d.mp3": 9159358, "01-susana-the_promise_( ...
创建时间: 2018-12-04 19:45:46 大小:219.74 MB 文件数量:27 热度:6 最近下载:2023-04-21 15:20:06
    {"folder.jpg": 431823, "15-udm-seventh_sky_(original).mp3": 17967662, "17-temple_one-daytona_(original).mp3": 17936336, "19-matt_pincer-the_catch_(original).mp3": 18687625, "03-andre_visior-moonraker_(original).mp3": 16278094, "09-kamil_esten-endless_way_( ...
创建时间: 2018-12-04 19:52:31 大小:602.19 MB 文件数量:26 热度:5 最近下载:2023-04-21 15:20:08
    {"Madwave_-_Shinobi-WEB-2018-MMS": {"01_madwave_-_shinobi.mp3": 8003387, "00_madwave_-_shinobi-web-2018.jpg": 132493, "00_madwave_-_shinobi-web-2018.m3u": 25, "00_madwave_-_shinobi-web-2018.nfo": 2560}, "EverLight_-_Nemesis-WEB-2018-MMS": {"01_everlight_- ...
创建时间: 2018-12-04 20:25:30 大小:3.73 GB 文件数量:424 热度:9 最近下载:2025-08-08 16:29:01
    {"armin_van_buuren_-_a_state_of_trance_742_-_2015-12-03.mp3": 290119478}
创建时间: 2018-12-04 20:52:02 大小:276.68 MB 文件数量:1 热度:7 最近下载:2025-06-05 00:36:01
    ... Vol.29.png": 274158, "Vocal Trance Top 25 Vol.29.txt ...
创建时间: 2018-12-04 20:52:23 大小:411.37 MB 文件数量:27 热度:8 最近下载:2024-08-22 21:43:02
    {"Imayl - Winds": {"cover.jpg": 56308, "Imayl - Winds (Original Mix).mp3": 15363473}, "Mrs Tangle - Aerial": {"cover.jpg": 97640, "01. Mrs Tangle - Aerial (Original Mix).mp3": 13539938, "02. Mrs Tangle - Aerial (Duncan Newell Remix).mp3": 18682933}, " ...
创建时间: 2018-12-04 21:02:22 大小:1.51 GB 文件数量:284 热度:5 最近下载:2023-04-21 15:40:05
    {"Gai Barone - Live @ Pure Trance, Home Nightclub Sydney, Australia (20- ... ).mp3": 282884212, "Solarstone - Live @ Pure Trance, Home Nightclub Sydney, Australia (20 ... ": 282188310, "Robert Nickson - Live @ Pure Trance, Home Nightclub Sydney, Australia (20 ...
创建时间: 2018-12-04 21:03:00 大小:818.44 MB 文件数量:3 热度:12 最近下载:2025-04-19 17:27:02
    ... ": 20549046, "03 - Vechigen - Do Not (Trance Mix).mp3": 18506255, "05 - Alexey ...
创建时间: 2018-12-04 21:13:20 大小:163.72 MB 文件数量:11 热度:7 最近下载:2023-04-21 15:50:09
    {"folder.jpg": 144559, "001. Gaia - In Principio (Radio Edit).mp3": 7895172, "003. Ilan Bluestone - 43 (Radio Edit).mp3": 9672543, "013. Arty - Hope (Airbase Radio Edit).mp3": 9337131, "010. Bobina - Flying Kitten (Radio Edit).mp3": 7591113, "016. Rodrigo ...
创建时间: 2018-12-04 21:14:37 大小:171.97 MB 文件数量:22 热度:6 最近下载:2023-04-21 15:50:06
    {"Inf..txt": 1034, "VA - Goa Trance Vol. 21 (2013).jpg": 200802, " ...
创建时间: 2018-12-04 21:43:39 大小:263.95 MB 文件数量:21 热度:8 最近下载:2023-04-21 16:00:15
    ... Me (Original Mix).mp3": 21390965, "Trance Travel Vol.56 (All Around ... the World).png": 402806, "Trance Travel Vol.56 (All Around ...
创建时间: 2018-12-04 21:59:24 大小:427.82 MB 文件数量:27 热度:8 最近下载:2024-12-23 13:09:01
    {"005. MaRLo - Forward Thinking.mp3": 15916871, "012. Airbase - Sand And Sorrow.mp3": 19631485, "004. Indamix - Zara (Original Mix).mp3": 18110122, "015. Ali Wilson & Lee Osborne - Sonar.mp3": 18803940, "017. MaLu - Intracloud (Original Mix).mp3": 16516658 ...
创建时间: 2018-12-04 22:04:04 大小:333.34 MB 文件数量:20 热度:7 最近下载:2023-04-21 16:10:04
    ... 23172548, "2-07. Art Of Trance - Madagascar (Ferry Corsten Remix).mp3 ... mp3": 18117005}, "A State Of Trance Classics Vol. 10 - 2015": ... mp3": 22546168}, "A State Of Trance Classics Vol. 11 - 2016": ... mp3": 18370161}, "A State Of Trance Classics Vol. 3 ‎- 2008": ...
创建时间: 2018-12-04 22:08:53 大小:7.35 GB 文件数量:407 热度:7 最近下载:2025-01-31 04:52:02
    {"Armin van Buuren - A State of Trance 771.mp3": 283554652}
创建时间: 2018-12-04 22:20:11 大小:270.42 MB 文件数量:1 热度:8 最近下载:2025-06-22 02:56:01
    ... mp3": 4298780}, "Hypnosis Without Trance CD2": {"01 James Tripp ... mp3": 7316506}, "Hypnosis Without Trance CD3": {"01 James Tripp ... mp3": 3789157}, "Hypnosis Without Trance CD7": {"01 James Tripp ... mov": 31596902}, "Hypnosis Without Trance DVD1.avi": 698480640, " ...
创建时间: 2018-12-04 22:41:32 大小:1.66 GB 文件数量:67 热度:8 最近下载:2023-04-21 16:30:03
    {"13. Kaimo K - Afraid.mp3": 10358509, "08. Jak Aggas - Fly Away.mp3": 8977163, "31. Dreamy - In My Heart.mp3": 9314664, "02. Dennis Sheperd - Dive.mp3": 9246748, "09. Ion Blue - Iron Heart.mp3": 9821442, "05. Ucast - To Another Day.mp3": 9616644, "12. ...
创建时间: 2018-12-04 22:45:38 大小:335.26 MB 文件数量:40 热度:6 最近下载:2023-04-21 16:30:08
    {"Trance (www.kinоkopilka.tv).avi": 1465065472, "Trance (www.kinоkopilka.tv).jpg": 48655, "KinoKopilka.tv - Best Movies BitTorrent Network.url": 154}
创建时间: 2018-12-04 22:53:47 大小:1.36 GB 文件数量:3 热度:6 最近下载:2023-04-21 16:30:03
    {"APD-Veyor-(DMA016)-WEB-2016-UKHx": {"02-apd-veyor_(radio_edit).mp3": 7540027, "01-apd-veyor_(original_mix).mp3": 11536761, "00-apd-veyor-(dma016)-web-2016-ukhx.m3u": 62, "00-apd-veyor-(dma016)-web-2016-ukhx.nfo": 5615, "00-apd-veyor-(dma016)-web-2016- ...
创建时间: 2018-12-04 22:54:55 大小:909.61 MB 文件数量:134 热度:8 最近下载:2024-12-27 12:01:34
    ... Demonstration Files": {"._Sample Foundry - Uplifting Trance Songstarters Volume 1 (Demo 1 ... ": 212}, "sample-foundry-uplifting-trance-songstarters-volume-1": {".DS_Store": ... Demonstration Files": {"Sample Foundry - Uplifting Trance Songstarters Volume 1 (Demo 1 ...
创建时间: 2018-12-04 23:00:40 大小:571.19 MB 文件数量:4242 热度:7 最近下载:2024-10-19 23:12:01
    {"Arggic - Wise Up": {"Cover.jpg": 109489, "MR076_Arggic_-_Wise_Up_(Radio_Edit).mp3": 8252666, "MR076_Arggic_-_Wise_Up_(Original_Mix).mp3": 16625437}, "Phil Sandy - Noisy Gate": {"cover.jpg": 135600, "Phil Sandy - Noisy Gate (Original Mix).mp3": 13639514}, ...
创建时间: 2018-12-04 23:23:03 大小:507.66 MB 文件数量:74 热度:7 最近下载:2025-03-28 00:42:03